Regional Weather Roundup
Issued by NWS Glasgow, MT

Home | Current Version | Previous Version | Text Only | Print | Product List | Glossary On
Versions: 1 2 3 4 5 6 7 8 9 10 11 12 13 14 15 16 17 18 19 20 21 22 23 24 25 26 27 28 29 30 31 32 33 34 35 36 37 38 39 40 41 42 43 44 45 46 47 48 49 50
000
ASUS45 KGGW 020015
RWRGGW
HOURLY WEATHER ROUNDUP FOR NORTHEAST MONTANA
NATIONAL WEATHER SERVICE GLASGOW MONTANA
600 PM MDT FRI AUG 01 2014

NOTE: "FAIR" INDICATES FEW OR NO CLOUDS BELOW 12,000 FEET WITH NO
SIGNIFICANT WEATHER AND/OR OBSTRUCTIONS TO VISISBILITY.

NORTHEAST MONTANA


CITY           SKY/WX    TMP DP  RH WIND       PRES   REMARKS
GLASGOW        MOSUNNY   87  55  33 SE5       30.04F
6HR MIN TEMP:  73; 6HR MAX TEMP:  92; 6HR PCP:  0.08;

PLENTYWOOD       N/A     84  53  34 E3          N/A
WOLF POINT     SUNNY     89  48  24 CALM      30.03F
JORDAN           N/A     90  38  16 N14       30.07S
WINNETT          N/A     90  37  15 E10         N/A
SIDNEY         SUNNY     84  52  32 N8        30.06F
GLENDIVE       SUNNY     86  54  32 NE9       30.07S
MALTA            N/A    N/A N/A N/A NE9         N/A
SCOBEY           N/A     84  51  31 NW6       30.07S

FORT PECK REPORTS


CITY           SKY/WX    TMP DP  RH WIND       PRES   REMARKS
FORT PECK        N/A     87  52  29 S5          N/A
THE PINES        N/A     91  44  19 NE5         N/A

SOUTHEAST MONTANA


CITY           SKY/WX    TMP DP  RH WIND       PRES   REMARKS
BILLINGS       MOSUNNY   91  36  14 E13       30.11S
MILES CITY     MOSUNNY   93  40  15 N12       30.03S
BAKER          SUNNY     88  51  28 NE14      30.06S
LIVINGSTON     MOSUNNY   89  39  17 SE16G24   30.15S

CENTRAL MONTANA


CITY           SKY/WX    TMP DP  RH WIND       PRES   REMARKS
HAVRE          PTSUNNY   84  54  35 N17G25    30.10R
LEWISTOWN      MOSUNNY   89  37  16 VRB6      30.16S
GREAT FALLS    MOSUNNY   91  34  13 E7        30.10F
CUT BANK       PTSUNNY   84  53  34 N15       30.15F
HELENA         PTSUNNY   94  37  13 N6        30.08F
BUTTE          PTSUNNY   85  32  15 SE15      30.21S
BOZEMAN        PTSUNNY   81  43  26 VRB6      30.14S

WESTERN MONTANA


CITY           SKY/WX    TMP DP  RH WIND       PRES   REMARKS
MISSOULA       CLOUDY    88  38  17 S16G26    30.04R
KALISPELL      NOT AVBL

NORTH DAKOTA


CITY           SKY/WX    TMP DP  RH WIND       PRES   REMARKS
WILLISTON      SUNNY     85  55  35 S8        30.06F
DICKINSON      SUNNY     81  59  47 NE18      30.06S
MINOT          PTSUNNY   82  58  43 NE5       30.07S
BISMARCK       PTSUNNY   83  59  44 NE13      30.03F HAZE

SOUTHERN SASKATCHEWAN


CITY           SKY/WX    TMP DP  RH WIND       PRES   REMARKS
REGINA         CLOUDY    70  57  64 W30G41    30.10R THUNDER
ESTEVAN        MOSUNNY   79  59  50 S6        30.08S
SWIFT CURRENT  MOSUNNY   66  57  72 N9        30.16S



USA.gov is the U.S. government's official web portal to all federal, state and local government web resources and services.